Regional Weather Roundup
Issued by NWS

Home | Current Version | Previous Version | Graphics & Text | Print | Product List | Glossary On
Versions: 1 2 3 4 5 6 7 8 9 10 11 12 13 14 15 16 17 18 19 20 21 22 23 24 25 26 27 28 29 30 31 32 33 34 35 36 37 38 39 40 41 42 43 44 45 46 47 48 49 50
000
ASUS43 KIND 242009
RWRIN

WEATHER ROUNDUP FOR INDIANA
NATIONAL WEATHER SERVICE INDIANAPOLIS IN
300 PM EST WED DEC 24 2014

NOTE: "FAIR" INDICATES FEW OR NO CLOUDS BELOW 12,000 FEET WITH NO
SIGNIFICANT WEATHER AND/OR OBSTRUCTIONS TO VISIBILITY.

* - STATION DOES NOT REPORT WEATHER SUCH AS PRECIPITATION OR FOG.

+ - STATION NOT QUALITY CONTROLLED BY THE NATIONAL WEATHER SERVICE.
    USE DATA WITH CAUTION...ESPECIALLY DEWPOINT AND RELATIVE
    HUMIDITY OBSERVATIONS.

INZ001>003-010>013-019-020-242100-
NORTHWEST INDIANA

CITY           SKY/WX    TMP DP  RH WIND       PRES   REMARKS
GARY /AIRPORT/ LGT RAIN  41  36  81 W9        29.48F
KNOX *+        CLOUDY    39  34  81 W14       29.45S
LA PORTE +     RAIN      39  39  98 NW6       29.46F
MICHIGAN CITY+ LGT RAIN  37  36  93 W6        29.47F
MONTICELLO +   LGT RAIN  38  37  94 W12       29.49S
RENSSELAER +   RAIN      37  37 100 W14G20    29.49S
VALPARAISO     LGT RAIN  38  35  89 W5        29.48F

$$

LMZ046-743>745-242100-
SOUTHERN LAKE MICHIGAN

STATION/POSITION TIME  TEMP WIND        PRES
                       AIR  DIR/SP/G
                 (UTC) (F)  (DEG/KT/KT) (MB)
MICHIGAN CITY    2000   37  260/  9/ 10   N/A

$$

INZ004-005-014>016-021>024-242100-
NORTH CENTRAL INDIANA

CITY           SKY/WX    TMP DP  RH WIND       PRES   REMARKS
GOSHEN         RAIN      39  37  92 NW9       29.40F FOG
LOGANSPORT +   LGT RAIN  37  36  93 W6G17     29.46S
PERU/GRISSOM   LGT RAIN  39  39 100 W10G20    29.45R
ROCHESTER +    RAIN      41  41 100 NW12      29.45S
SOUTH BEND     LGT RAIN  40  37  89 NW13      29.43F
WARSAW +       RAIN      37  36  93 NW10      29.42R

$$

INZ006>009-017-018-025>027-242100-
NORTHEAST INDIANA

CITY           SKY/WX    TMP DP  RH WIND       PRES   REMARKS
ANGOLA *+      CLOUDY    39  37  93 NW7       29.37R
AUBURN +       RAIN      41  37  87 NW6       29.38R
FORT WAYNE     RAIN      41  39  93 NW6       29.39R FOG
HUNTINGTON +   LGT RAIN  40  39  99 NW6       29.40R

$$

INZ028-029-035-036-043>045-051>053-242100-
WEST CENTRAL INDIANA

CITY           SKY/WX    TMP DP  RH WIND       PRES   REMARKS
CRAWFORDSVL +  CLOUDY    36  34  93 W7        29.52
GREENCASTLE +  CLOUDY    37  34  87 W8        29.53S
LAFAYETTE      LGT RAIN  38  36  92 W9        29.51S
TERRE HAUTE    LGT RAIN  39  36  89 W10       29.56R

$$

INZ030>032-037>040-046>048-054>057-064-065-242100-
CENTRAL INDIANA

CITY           SKY/WX    TMP DP  RH WIND       PRES   REMARKS
CP ATTERBURY + RAIN      41  36  81 MISG      29.52R
COLUMBUS       LGT RAIN  39  39 100 W14       29.52R
FRANKFORT +    LGT RAIN  38  38 100 W16       29.52R
GREENWOOD *+   CLOUDY    39  34  81 W13G23    29.49
INDIANAPOLIS   LGT RAIN  38  36  92 W16       29.48S
-EAGLE CREEK   LGT RAIN  38  36  92 NW14      29.47R
KOKOMO *+      CLOUDY    39  36  87 NW14      29.46R
MARION +       LGT RAIN  39  39  99 NW13G22   29.44R
MT COMFORT *+  CLOUDY    39  39 100 W16G22    29.45S
SHELBYVILLE    LGT RAIN  42  37  82 W16       29.46R
ZIONSVILLE +   DRIZZLE   39  35  86 W12G17    29.49R

$$

INZ033-034-041-042-049-050-058-059-242100-
EAST CENTRAL INDIANA

CITY           SKY/WX    TMP DP  RH WIND       PRES   REMARKS
MUNCIE         LGT RAIN  41  39  93 NW15      29.40S

$$

INZ060-061-067>069-081>083-085>088-242100-
SOUTHWEST INDIANA

CITY           SKY/WX    TMP DP  RH WIND       PRES   REMARKS
EVANSVILLE     CLOUDY    43  38  82 W12G21    29.63R
HUNTINGBURG *+ CLOUDY    43  37  81 W17G23    29.60S
WASHINGTON +   CLOUDY    40  37  86 W15       29.59R

$$

INZ062-063-066-070>080-084-089>092-242100-
SOUTH CENTRAL AND SOUTHEAST INDIANA

CITY           SKY/WX    TMP DP  RH WIND       PRES   REMARKS
BLOOMINGTON    LGT RAIN  40  37  89 W17G31    29.53S
NORTH VERNON + RAIN      43  43 100 W14G22    29.49
SEYMOUR +      LGT RAIN  43  41  93 W15G21    29.51

$$



USA.gov is the U.S. government's official web portal to all federal, state and local government web resources and services.